q   5.5052352            (2000.0)            P               Q

z  -0.0007681      Peri.   90.41418     -0.23109972     -0.96823384

 +/-0.0000043      Node   345.90167     -0.97291508     +0.23052549

e   1.0042286      Incl.  156.92291     +0.00540128     +0.09685672

From 119 observations 1999 July 12-2000 Mar. 14, mean residual 0".61.

 

Date/        TT  R.A.(2000) Decl.     Delta   r     Daily motion  Mag.  Moon Age

              h    h  m       。  ,                      ,  / PA 。  m1      。

2000 Mar. 15 18  18 17.09  -00 43.6   5.586  5.528     6.5 / 316  17.2  148  .77

          16 18  18 16.78  -00 38.9   5.568  5.528     6.7 / 315  17.2  137  .86

          17 18  18 16.47  -00 34.1   5.550  5.527     6.9 / 314  17.1  124  .93

          18 18  18 16.14  -00 29.4   5.532  5.526     7.1 / 313  17.1  111  .97

          19 18  18 15.79  -00 24.6   5.513  5.526     7.3 / 312  17.1   98 1.00

          20 18  18 15.43  -00 19.7   5.495  5.525     7.4 / 311  17.1   85  .99

          21 18  18 15.06  -00 14.8   5.477  5.525     7.6 / 310  17.1   73  .97

          22 18  18 14.67  -00 09.9   5.458  5.524     7.8 / 309  17.1   61  .93

          23 18  18 14.26  -00 05.0   5.440  5.523     8.0 / 308  17.1   49  .87

          24 18  18 13.84  -00 00.0   5.422  5.523     8.2 / 307  17.1   39  .79

          25 18  18 13.41  +00 05.0   5.404  5.522     8.4 / 307  17.1   30  .71

          26 18  18 12.96  +00 10.0   5.385  5.522     8.6 / 306  17.1   23  .62

          27 18  18 12.49  +00 15.0   5.367  5.521     8.8 / 305  17.1   21  .52

          28 18  18 12.01  +00 20.1   5.349  5.521     9.0 / 304  17.1   26  .43

          29 18  18 11.51  +00 25.2   5.331  5.520     9.2 / 304  17.1   34  .34

          30 18  18 11.00  +00 30.3   5.313  5.519     9.5 / 303  17.0   44  .25

          31 18  18 10.47  +00 35.4   5.295  5.519     9.7 / 302  17.0   55  .17

     Apr.  1 18  18 09.92  +00 40.6   5.277  5.518     9.9 / 302  17.0   66  .10

           2 18  18 09.36  +00 45.8   5.259  5.518    10.1 / 301  17.0   78  .05

           3 18  18 08.78  +00 51.0   5.242  5.517    10.3 / 300  17.0   91  .01

           4 18  18 08.19  +00 56.2   5.224  5.517    10.6 / 300  17.0  104  .00

           5 18  18 07.57  +01 01.4   5.206  5.516    10.8 / 299  17.0  117  .01

           6 18  18 06.94  +01 06.6   5.189  5.516    11.0 / 298  17.0  129  .05

           7 18  18 06.30  +01 11.9   5.172  5.516    11.2 / 298  17.0  142  .11

           8 18  18 05.63  +01 17.1   5.154  5.515    11.5 / 297  17.0  152  .20

           9 18  18 04.95  +01 22.4   5.137  5.515    11.7 / 297  17.0  157  .30

          10 18  18 04.26  +01 27.7   5.120  5.514    11.9 / 296  17.0  155  .41

          11 18  18 03.54  +01 32.9   5.104  5.514    12.2 / 296  17.0  147  .52

          12 18  18 02.81  +01 38.2   5.087  5.513    12.4 / 295  16.9  135  .63

          13 18  18 02.06  +01 43.5   5.071  5.513    12.6 / 295  16.9  123  .74

          14 18  18 01.30  +01 48.7   5.054  5.513    12.9 / 294  16.9  110  .83

          15 18  18 00.52  +01 54.0   5.038  5.512    13.1 / 294  16.9   98  .90

          16 18  17 59.72  +01 59.3   5.022  5.512    13.3 / 293  16.9   85  .96

          17 18  17 58.90  +02 04.5   5.006  5.512    13.5 / 293  16.9   73  .99

          18 18  17 58.07  +02 09.8   4.991  5.511    13.8 / 292  16.9   61 1.00

          19 18  17 57.22  +02 15.0   4.975  5.511    14.0 / 292  16.9   50  .99

          20 18  17 56.35  +02 20.2   4.960  5.511    14.2 / 291  16.9   39  .96

          21 18  17 55.47  +02 25.4   4.945  5.510    14.5 / 291  16.9   30  .91

          22 18  17 54.57  +02 30.6   4.930  5.510    14.7 / 291  16.9   25  .85

          23 18  17 53.65  +02 35.8   4.916  5.510    14.9 / 290  16.9   24  .77

          24 18  17 52.72  +02 40.9   4.902  5.509    15.1 / 290  16.9   28  .69

          25 18  17 51.77  +02 46.0   4.888  5.509    15.4 / 289  16.9   36  .60

          26 18  17 50.80  +02 51.1   4.874  5.509    15.6 / 289  16.8   46  .51

          27 18  17 49.82  +02 56.2   4.860  5.509    15.8 / 289  16.8   57  .41

          28 18  17 48.82  +03 01.2   4.847  5.508    16.0 / 288  16.8   68  .32

          29 18  17 47.80  +03 06.2   4.834  5.508    16.2 / 288  16.8   80  .23

          30 18  17 46.77  +03 11.2   4.821  5.508    16.4 / 287  16.8   92  .14

     May   1 18  17 45.73  +03 16.1   4.809  5.508    16.6 / 287  16.8  104  .08

NAKANO

         **** Don't distribute anyone except personal use only ****

                (C) Copyright 2000 OAA/ComputingSection

write mail from CFAD0::NAKANO on 2000-03-16 04:18:22(JST).



    C/1999 N4 (LINEAR) 

T 2000 May 26.07914 TT                                  Nakano

q   5.4970413            (2000.0)            P               Q

                   Peri.   90.63982     -0.23561799     -0.96711066

                   Node   345.85525     -0.97182723     +0.23507412

e   1.0            Incl.  156.91483     +0.00599888     +0.09714485

From 99 observations 1999 July 12-Oct. 3.



NAKANO

         **** Don't distribute anyone except personal use only ****

                (C) Copyright 1999 OAA/ComputingSection

write mail from CFAD0::NAKANO on 1999-10-26 05:12:24(JST).





    C/1999 N4 (LINEAR) 

T 2000 May 25.52630 TT                                  Nakano

q   5.4990884            (2000.0)            P               Q

                   Peri.   90.57858     -0.23448840     -0.96738984

                   Node   345.86156     -0.97210125     +0.23393743

e   1.0            Incl.  156.91619     +0.00586116     +0.09710904

From 94 observations 1999 July 12-Aug. 29.



NAKANO

         **** Don't distribute anyone except personal use only ****

                (C) Copyright 1999 OAA/ComputingSection

write mail from CFAD0::NAKANO on 1999-09-28 01:08:24(JST).

 

    C/1999 N4 (LINEAR) 

T 2000 May 24.53096 TT                                  Nakano

q   5.5029855            (2000.0)            P               Q

                   Peri.   90.46970     -0.23242878     -0.96789751

                   Node   345.87612     -0.97259730     +0.23186420

e   1.0            Incl.  156.91929     +0.00559929     +0.09702264

From 78 observations 1999 July 12-23.



◎C/1999 N4の軌道と予報位置です



 我国で最初の観測が,ダイニックの杉江淳氏から報告されました.



    C/1999 N4 (LINEAR) 

T 2000 May 25.39987 TT                                  Nakano

q   5.4997145            (2000.0)            P               Q

                   Peri.   90.58192     -0.23421778     -0.96747155

                   Node   345.88317     -0.97216719     +0.23365936

e   1.0            Incl.  156.92126     +0.00574364     +0.09696448

From 75 observations 1999 July 12-22.

 



NAKANO

         **** Don't distribute anyone except personal use only ****

                (C) Copyright 1999 OAA/ComputingSection

write mail from CFAD0::NAKANO on 1999-07-24 05:17:44(JST).



◎C/1999 N4の軌道と予報位置です



 我国からの報告は,まだ,ありません.



    C/1999 N4 (LINEAR) 

T 2000 May 11.40395 TT                                  Nakano

q   5.5510356            (2000.0)            P               Q

                   Peri.   88.85151     -0.20565484     -0.97390398

                   Node   345.83295     -0.97861945     +0.20497968

e   1.0            Incl.  156.90473     +0.00317156     +0.09743902

From 68 observations 1999 July 12-18.

 

NAKANO

         **** Don't distribute anyone except personal use only ****

                (C) Copyright 1999 OAA/ComputingSection

write mail from CFAD0::NAKANO on 1999-07-21 20:07:52(JST).



戻ります。